Location: Central Falls
(41.8900°N, 71.3929°W)
Time: 21:22:45
(UTC+00:00)

Courier 1B Rocket - Pass Details

Date: 09 December 2023
Orbit: 920 x 1202 km, 28.2° (Epoch: 04 March)

Event Time Altitude Azimuth Distance (km) Brightness Sun altitude
Rises 17:23:28 0° 248° (WSW) 3,784 8.5 24.4°
Reaches altitude 10° 17:26:46 10° 236° (SW) 2,781 8.2 24.3°
Maximum altitude 17:31:56 24° 185° (S) 1,896 9.2 24.1°
Drops below altitude 10° 17:36:53 10° 134° (SE) 2,652 7.8 23.8°
Sets 17:39:57 0° 120° (ESE) 3,570 8.1 23.7°
